| time (UTC) | temp F | wind direction | speed MPH | gust MPH | rain 1hr in | rain 24hr in | rain mn in | humidity % | barometer mb |
| 20260506051304 | 50 | 132 | 0.0 | 0.0 | 0.00 | 0.01 | 0.01 | 68 | 1007.1 |
| 20260506050803 | 50 | 132 | 0.0 | 0.0 | 0.00 | 0.01 | 0.01 | 68 | 1007.1 |
| 20260506050304 | 50 | 132 | 0.0 | 0.0 | 0.00 | 0.01 | 0.01 | 68 | 1007.0 |
| 20260506044806 | 50 | 132 | 1.0 | 2.0 | 0.00 | 0.01 | 0.01 | 67 | 1007.1 |
| 20260506044306 | 51 | 132 | 0.0 | 0.0 | 0.00 | 0.01 | 0.01 | 66 | 1007.1 |
| 20260506043806 | 51 | 132 | 0.0 | 0.0 | 0.00 | 0.01 | 0.01 | 66 | 1007.1 |
| 20260506043306 | 51 | 132 | 0.0 | 0.0 | 0.00 | 0.01 | 0.01 | 66 | 1007.1 |
| 20260506041805 | 52 | 111 | 0.0 | 2.0 | 0.00 | 0.01 | 0.01 | 65 | 1007.0 |
| 20260506041306 | 52 | 111 | 2.0 | 3.0 | 0.00 | 0.01 | 0.01 | 65 | 1007.0 |
| 20260506040305 | 52 | 92 | 0.0 | 0.0 | 0.00 | 0.01 | 0.01 | 64 | 1007.0 |
| 20260506035805 | 53 | 92 | 0.0 | 0.0 | 0.00 | 0.01 | 0.01 | 63 | 1007.0 |
| 20260506035306 | 53 | 92 | 0.0 | 3.0 | 0.00 | 0.01 | 0.01 | 63 | 1007.0 |
| 20260506034806 | 53 | 92 | 1.0 | 3.0 | 0.00 | 0.01 | 0.01 | 63 | 1006.9 |
| 20260506034305 | 53 | 97 | 2.0 | 5.0 | 0.00 | 0.01 | 0.01 | 62 | 1006.9 |
| 20260506033805 | 53 | 96 | 1.0 | 3.0 | 0.00 | 0.01 | 0.01 | 62 | 1006.9 |
| 20260506033305 | 54 | 86 | 0.0 | 0.0 | 0.00 | 0.01 | 0.01 | 61 | 1006.9 |
| 20260506031805 | 54 | 86 | 1.0 | 2.0 | 0.00 | 0.01 | 0.01 | 61 | 1006.8 |
| 20260506031305 | 54 | 86 | 1.0 | 3.0 | 0.00 | 0.01 | 0.01 | 61 | 1006.8 |
| 20260506030805 | 54 | 86 | 2.0 | 3.0 | 0.00 | 0.01 | 0.01 | 60 | 1006.6 |
| 20260506030306 | 54 | 86 | 2.0 | 3.0 | 0.00 | 0.01 | 0.01 | 60 | 1006.6 |
| 20260506025805 | 55 | 101 | 2.0 | 3.0 | 0.00 | 0.01 | 0.01 | 60 | 1006.6 |
| 20260506025306 | 55 | 111 | 0.0 | 0.0 | 0.00 | 0.01 | 0.01 | 59 | 1006.6 |
| 20260506024306 | 55 | 140 | 0.0 | 0.0 | 0.00 | 0.01 | 0.01 | 58 | 1006.5 |
| 20260506023805 | 56 | 140 | 0.0 | 0.0 | 0.00 | 0.01 | 0.01 | 58 | 1006.4 |
| 20260506023305 | 56 | 140 | 0.0 | 0.0 | 0.00 | 0.01 | 0.01 | 58 | 1006.3 |
| 20260506022805 | 56 | 140 | 1.0 | 3.0 | 0.00 | 0.01 | 0.01 | 57 | 1006.3 |
| 20260506021805 | 56 | 153 | 2.0 | 3.0 | 0.00 | 0.01 | 0.01 | 57 | 1006.1 |
| 20260506021305 | 56 | 130 | 2.0 | 3.0 | 0.00 | 0.01 | 0.01 | 57 | 1006.1 |
| 20260506020305 | 57 | 155 | 2.0 | 6.0 | 0.00 | 0.01 | 0.01 | 57 | 1006.0 |
| 20260506015805 | 57 | 171 | 5.0 | 8.0 | 0.00 | 0.01 | 0.01 | 56 | 1006.0 |
| 20260506015306 | 57 | 166 | 3.0 | 7.0 | 0.00 | 0.01 | 0.01 | 55 | 1006.2 |
| 20260506014805 | 57 | 168 | 5.0 | 8.0 | 0.00 | 0.01 | 0.01 | 53 | 1006.2 |
| 20260506014306 | 57 | 170 | 6.0 | 8.0 | 0.00 | 0.01 | 0.01 | 53 | 1006.2 |
| 20260506013805 | 57 | 168 | 5.0 | 8.0 | 0.00 | 0.01 | 0.01 | 52 | 1006.2 |
| 20260506013305 | 57 | 162 | 6.0 | 8.0 | 0.00 | 0.01 | 0.01 | 53 | 1006.2 |
| 20260506012805 | 58 | 170 | 5.0 | 7.0 | 0.00 | 0.01 | 0.01 | 52 | 1006.2 |
| 20260506012307 | 58 | 179 | 6.0 | 12.0 | 0.00 | 0.01 | 0.01 | 52 | 1006.2 |
| 20260506011805 | 58 | 182 | 6.0 | 9.0 | 0.00 | 0.01 | 0.01 | 51 | 1006.1 |
| 20260506011305 | 58 | 170 | 5.0 | 7.0 | 0.00 | 0.01 | 0.01 | 50 | 1006.1 |
| 20260506010805 | 59 | 166 | 3.0 | 7.0 | 0.00 | 0.01 | 0.01 | 49 | 1006.1 |
| 20260506010305 | 59 | 165 | 5.0 | 9.0 | 0.00 | 0.01 | 0.01 | 48 | 1006.1 |
| 20260506005805 | 59 | 164 | 3.0 | 8.0 | 0.00 | 0.01 | 0.01 | 48 | 1006.1 |
| 20260506005306 | 59 | 156 | 2.0 | 5.0 | 0.00 | 0.01 | 0.01 | 48 | 1006.0 |
| 20260506004805 | 59 | 160 | 4.0 | 7.0 | 0.00 | 0.01 | 0.01 | 47 | 1006.0 |
| 20260506004305 | 59 | 146 | 5.0 | 9.0 | 0.00 | 0.01 | 0.01 | 46 | 1006.0 |
| 20260506003305 | 60 | 170 | 5.0 | 6.0 | 0.00 | 0.01 | 0.01 | 46 | 1006.0 |
| 20260506002306 | 60 | 177 | 3.0 | 6.0 | 0.00 | 0.01 | 0.01 | 46 | 1006.0 |
| 20260506001805 | 60 | 155 | 3.0 | 6.0 | 0.00 | 0.01 | 0.01 | 48 | 1006.0 |
| 20260506001305 | 60 | 171 | 2.0 | 7.0 | 0.00 | 0.01 | 0.01 | 47 | 1006.0 |
| 20260506000805 | 60 | 170 | 4.0 | 6.0 | 0.00 | 0.01 | 0.01 | 47 | 1006.0 |
| 20260505235805 | 59 | 141 | 4.0 | 8.0 | 0.00 | 0.01 | 0.01 | 47 | 1005.8 |
| 20260505235305 | 59 | 168 | 3.0 | 6.0 | 0.00 | 0.01 | 0.01 | 47 | 1006.2 |
| 20260505234805 | 59 | 160 | 5.0 | 8.0 | 0.00 | 0.01 | 0.01 | 47 | 1006.2 |
| 20260505234305 | 59 | 189 | 4.0 | 7.0 | 0.00 | 0.01 | 0.01 | 47 | 1006.2 |
| 20260505233805 | 59 | 174 | 3.0 | 7.0 | 0.00 | 0.01 | 0.01 | 49 | 1006.4 |
| 20260505233305 | 58 | 198 | 1.0 | 3.0 | 0.00 | 0.01 | 0.01 | 51 | 1006.4 |
| 20260505232805 | 57 | 204 | 4.0 | 6.0 | 0.00 | 0.01 | 0.01 | 51 | 1006.4 |
| 20260505231805 | 57 | 231 | 3.0 | 6.0 | 0.00 | 0.01 | 0.01 | 52 | 1006.4 |
| 20260505231306 | 57 | 198 | 4.0 | 6.0 | 0.00 | 0.01 | 0.01 | 52 | 1006.5 |
| 20260505230805 | 57 | 226 | 3.0 | 5.0 | 0.00 | 0.01 | 0.01 | 52 | 1006.7 |
| 20260505230305 | 57 | 181 | 2.0 | 3.0 | 0.00 | 0.01 | 0.01 | 53 | 1006.7 |
| 20260505225805 | 56 | 212 | 2.0 | 3.0 | 0.00 | 0.01 | 0.01 | 54 | 1006.7 |
| 20260505225306 | 57 | 169 | 2.0 | 3.0 | 0.00 | 0.01 | 0.01 | 54 | 1006.7 |
| 20260505224806 | 57 | 128 | 1.0 | 3.0 | 0.00 | 0.01 | 0.01 | 54 | 1006.7 |
| 20260505224305 | 57 | 88 | 1.0 | 2.0 | 0.00 | 0.01 | 0.01 | 53 | 1006.8 |
| 20260505223805 | 57 | 88 | 0.0 | 3.0 | 0.00 | 0.01 | 0.01 | 52 | 1006.8 |
| 20260505223305 | 57 | 119 | 0.0 | 3.0 | 0.00 | 0.01 | 0.01 | 54 | 1006.9 |
| 20260505222805 | 57 | 216 | 1.0 | 3.0 | 0.00 | 0.01 | 0.01 | 52 | 1006.9 |
| 20260505222306 | 57 | 174 | 1.0 | 2.0 | 0.00 | 0.01 | 0.01 | 50 | 1006.9 |
| 20260505221305 | 57 | 138 | 0.0 | 0.0 | 0.00 | 0.01 | 0.01 | 50 | 1007.0 |
| 20260505220805 | 57 | 197 | 0.0 | 3.0 | 0.00 | 0.01 | 0.01 | 50 | 1006.9 |
| 20260505220305 | 56 | 164 | 2.0 | 5.0 | 0.00 | 0.01 | 0.01 | 51 | 1007.1 |
| 20260505215805 | 56 | 170 | 3.0 | 5.0 | 0.00 | 0.01 | 0.01 | 51 | 1007.1 |
| 20260505215306 | 56 | 164 | 3.0 | 5.0 | 0.00 | 0.01 | 0.01 | 52 | 1007.1 |
| 20260505214805 | 56 | 170 | 3.0 | 6.0 | 0.00 | 0.01 | 0.01 | 52 | 1007.1 |
| 20260505214304 | 56 | 166 | 5.0 | 8.0 | 0.00 | 0.01 | 0.01 | 52 | 1007.2 |
| 20260505213805 | 56 | 153 | 3.0 | 6.0 | 0.00 | 0.01 | 0.01 | 52 | 1007.2 |
| 20260505213305 | 56 | 168 | 4.0 | 7.0 | 0.00 | 0.01 | 0.01 | 52 | 1007.2 |
| 20260505212805 | 56 | 159 | 5.0 | 7.0 | 0.00 | 0.01 | 0.01 | 50 | 1007.3 |
| 20260505212306 | 57 | 170 | 5.0 | 7.0 | 0.00 | 0.01 | 0.01 | 49 | 1007.4 |
| 20260505211805 | 57 | 163 | 4.0 | 7.0 | 0.00 | 0.01 | 0.01 | 48 | 1007.4 |
| 20260505211305 | 57 | 141 | 2.0 | 6.0 | 0.00 | 0.01 | 0.01 | 48 | 1007.2 |
| 20260505210805 | 57 | 162 | 4.0 | 6.0 | 0.00 | 0.01 | 0.01 | 48 | 1007.2 |
| 20260505210305 | 57 | 164 | 5.0 | 7.0 | 0.00 | 0.01 | 0.01 | 48 | 1007.2 |
| 20260505205805 | 57 | 163 | 3.0 | 7.0 | 0.00 | 0.01 | 0.01 | 48 | 1007.2 |
| 20260505205305 | 57 | 187 | 4.0 | 7.0 | 0.00 | 0.01 | 0.01 | 48 | 1007.3 |
| 20260505204805 | 57 | 131 | 5.0 | 7.0 | 0.00 | 0.01 | 0.01 | 47 | 1007.3 |
| 20260505204306 | 57 | 174 | 5.0 | 8.0 | 0.00 | 0.01 | 0.01 | 48 | 1007.4 |
| 20260505203805 | 57 | 185 | 5.0 | 8.0 | 0.00 | 0.01 | 0.01 | 48 | 1007.4 |
| 20260505203306 | 57 | 108 | 3.0 | 6.0 | 0.00 | 0.01 | 0.01 | 49 | 1007.4 |
| 20260505202805 | 58 | 92 | 5.0 | 9.0 | 0.00 | 0.01 | 0.01 | 49 | 1007.4 |
| 20260505201305 | 57 | 129 | 5.0 | 9.0 | 0.00 | 0.01 | 0.01 | 51 | 1007.3 |
| 20260505195805 | 55 | 118 | 6.0 | 10.0 | 0.00 | 0.01 | 0.01 | 51 | 1007.3 |
| 20260505194805 | 55 | 145 | 5.0 | 9.0 | 0.00 | 0.01 | 0.01 | 53 | 1007.6 |
| 20260505194306 | 55 | 161 | 3.0 | 8.0 | 0.00 | 0.01 | 0.01 | 54 | 1007.6 |
| 20260505193305 | 55 | 128 | 3.0 | 9.0 | 0.00 | 0.01 | 0.01 | 55 | 1007.7 |
| 20260505192805 | 55 | 155 | 5.0 | 9.0 | 0.00 | 0.01 | 0.01 | 55 | 1007.8 |
| 20260505192306 | 54 | 137 | 5.0 | 10.0 | 0.00 | 0.01 | 0.01 | 55 | 1007.8 |
| 20260505191305 | 55 | 123 | 7.0 | 12.0 | 0.00 | 0.01 | 0.01 | 54 | 1007.7 |
| 20260505190805 | 55 | 139 | 5.0 | 10.0 | 0.00 | 0.01 | 0.01 | 55 | 1007.7 |
| 20260505190305 | 55 | 167 | 5.0 | 9.0 | 0.00 | 0.01 | 0.01 | 56 | 1007.7 |
| 20260505185305 | 55 | 157 | 6.0 | 12.0 | 0.00 | 0.01 | 0.01 | 57 | 1008.1 |
| 20260505184805 | 54 | 164 | 5.0 | 9.0 | 0.00 | 0.01 | 0.01 | 57 | 1008.1 |
| 20260505184305 | 54 | 122 | 6.0 | 9.0 | 0.00 | 0.01 | 0.01 | 58 | 1008.1 |
| 20260505183805 | 54 | 122 | 6.0 | 10.0 | 0.00 | 0.01 | 0.01 | 58 | 1008.1 |
| 20260505183305 | 54 | 138 | 6.0 | 10.0 | 0.00 | 0.01 | 0.01 | 58 | 1008.2 |
| 20260505182805 | 53 | 140 | 6.0 | 9.0 | 0.00 | 0.01 | 0.01 | 59 | 1007.8 |
| 20260505182306 | 53 | 136 | 7.0 | 10.0 | 0.00 | 0.01 | 0.01 | 59 | 1007.8 |
| 20260505181805 | 53 | 133 | 7.0 | 13.0 | 0.00 | 0.01 | 0.01 | 59 | 1007.8 |
| 20260505181304 | 53 | 104 | 8.0 | 13.0 | 0.00 | 0.01 | 0.01 | 58 | 1007.8 |
| 20260505180805 | 53 | 144 | 3.0 | 12.0 | 0.00 | 0.01 | 0.01 | 60 | 1007.8 |
| 20260505180305 | 53 | 115 | 7.0 | 12.0 | 0.00 | 0.01 | 0.01 | 60 | 1008.0 |
| 20260505175805 | 53 | 136 | 6.0 | 10.0 | 0.00 | 0.01 | 0.01 | 61 | 1008.0 |
| 20260505175306 | 53 | 107 | 7.0 | 12.0 | 0.00 | 0.01 | 0.01 | 61 | 1008.0 |
| 20260505174805 | 53 | 113 | 6.0 | 14.0 | 0.00 | 0.01 | 0.01 | 61 | 1008.0 |
| 20260505173805 | 52 | 125 | 7.0 | 13.0 | 0.00 | 0.01 | 0.01 | 62 | 1008.0 |
| 20260505172805 | 52 | 127 | 7.0 | 13.0 | 0.00 | 0.01 | 0.01 | 62 | 1008.0 |
| 20260505172306 | 52 | 122 | 10.0 | 13.0 | 0.00 | 0.01 | 0.01 | 63 | 1008.0 |
| 20260505171805 | 52 | 124 | 9.0 | 12.0 | 0.00 | 0.01 | 0.01 | 63 | 1008.0 |
| 20260505171305 | 52 | 132 | 6.0 | 12.0 | 0.00 | 0.01 | 0.01 | 63 | 1008.0 |
| 20260505170805 | 51 | 134 | 6.0 | 13.0 | 0.00 | 0.01 | 0.01 | 64 | 1008.0 |
| 20260505170306 | 51 | 130 | 7.0 | 13.0 | 0.00 | 0.01 | 0.01 | 65 | 1007.9 |
| 20260505165805 | 51 | 120 | 6.0 | 12.0 | 0.00 | 0.01 | 0.01 | 65 | 1008.2 |
| 20260505165306 | 51 | 127 | 8.0 | 12.0 | 0.00 | 0.01 | 0.01 | 65 | 1008.2 |
| 20260505164805 | 51 | 131 | 9.0 | 13.0 | 0.00 | 0.01 | 0.01 | 66 | 1008.2 |
| 20260505164305 | 51 | 119 | 7.0 | 12.0 | 0.00 | 0.01 | 0.01 | 67 | 1008.1 |
| 20260505163805 | 51 | 113 | 7.0 | 13.0 | 0.00 | 0.01 | 0.01 | 67 | 1008.0 |
| 20260505163305 | 51 | 108 | 7.0 | 12.0 | 0.00 | 0.01 | 0.01 | 67 | 1008.0 |
| 20260505162805 | 50 | 118 | 6.0 | 14.0 | 0.00 | 0.01 | 0.01 | 67 | 1008.0 |
| 20260505161805 | 50 | 106 | 10.0 | 18.0 | 0.00 | 0.01 | 0.01 | 67 | 1007.9 |
| 20260505161305 | 50 | 118 | 9.0 | 18.0 | 0.00 | 0.01 | 0.01 | 67 | 1007.9 |
| 20260505160805 | 50 | 111 | 7.0 | 13.0 | 0.00 | 0.01 | 0.01 | 68 | 1007.7 |
| 20260505160305 | 50 | 127 | 8.0 | 15.0 | 0.00 | 0.01 | 0.01 | 68 | 1007.7 |
| 20260505153305 | 51 | 125 | 11.0 | 18.0 | 0.00 | 0.01 | 0.01 | 68 | 1007.5 |
| 20260505152805 | 51 | 132 | 10.0 | 14.0 | 0.00 | 0.01 | 0.01 | 67 | 1007.5 |
| 20260505152305 | 51 | 117 | 9.0 | 13.0 | 0.00 | 0.01 | 0.01 | 67 | 1007.5 |
| 20260505151805 | 51 | 123 | 9.0 | 13.0 | 0.01 | 0.01 | 0.01 | 67 | 1007.3 |
| 20260505151305 | 51 | 117 | 6.0 | 14.0 | 0.01 | 0.01 | 0.01 | 67 | 1007.3 |
| 20260505150805 | 51 | 109 | 7.0 | 14.0 | 0.01 | 0.01 | 0.01 | 66 | 1007.3 |
| 20260505150305 | 51 | 123 | 10.0 | 15.0 | 0.01 | 0.01 | 0.01 | 66 | 1007.3 |
| 20260505140305 | 53 | 108 | 7.0 | 13.0 | 0.00 | 0.00 | 0.00 | 60 | 1006.6 |
| 20260505130305 | 55 | 107 | 8.0 | 14.0 | 0.00 | 0.00 | 0.00 | 55 | 1005.8 |
| 20260505124305 | 55 | 131 | 7.0 | 13.0 | 0.00 | 0.00 | 0.00 | 64 | 1005.5 |
| 20260505123805 | 55 | 134 | 6.0 | 9.0 | 0.00 | 0.00 | 0.00 | 69 | 1005.5 |
| 20260505123305 | 55 | 145 | 5.0 | 12.0 | 0.00 | 0.00 | 0.00 | 70 | 1005.5 |
| 20260505122805 | 55 | 151 | 5.0 | 7.0 | 0.00 | 0.00 | 0.00 | 70 | 1005.5 |
| 20260505121804 | 55 | 174 | 3.0 | 3.0 | 0.00 | 0.00 | 0.00 | 71 | 1005.5 |
| 20260505121305 | 55 | 165 | 3.0 | 5.0 | 0.00 | 0.00 | 0.00 | 71 | 1005.6 |
| 20260505120805 | 55 | 172 | 3.0 | 7.0 | 0.00 | 0.00 | 0.00 | 71 | 1005.6 |
| 20260505120305 | 55 | 172 | 3.0 | 6.0 | 0.00 | 0.00 | 0.00 | 69 | 1005.5 |
| 20260505115805 | 55 | 219 | 4.0 | 6.0 | 0.00 | 0.00 | 0.00 | 68 | 1005.5 |
| 20260505114805 | 55 | 180 | 3.0 | 6.0 | 0.00 | 0.00 | 0.00 | 67 | 1005.5 |
| 20260505114305 | 55 | 170 | 5.0 | 8.0 | 0.00 | 0.00 | 0.00 | 67 | 1005.5 |
| 20260505113304 | 55 | 182 | 3.0 | 6.0 | 0.00 | 0.00 | 0.00 | 67 | 1005.5 |
| 20260505112804 | 55 | 168 | 5.0 | 9.0 | 0.00 | 0.00 | 0.00 | 68 | 1005.5 |
| 20260505112305 | 55 | 188 | 2.0 | 5.0 | 0.00 | 0.00 | 0.00 | 69 | 1005.4 |
| 20260505111805 | 55 | 135 | 6.0 | 9.0 | 0.00 | 0.00 | 0.00 | 71 | 1005.4 |
| 20260505110804 | 55 | 109 | 5.0 | 8.0 | 0.00 | 0.00 | 0.00 | 73 | 1005.5 |
| 20260505110305 | 55 | 116 | 6.0 | 9.0 | 0.00 | 0.00 | 0.00 | 74 | 1005.5 |
| 20260505101804 | 56 | 104 | 4.0 | 8.0 | 0.00 | 0.00 | 0.00 | 69 | 1005.5 |
| 20260505101305 | 56 | 135 | 2.0 | 5.0 | 0.00 | 0.00 | 0.00 | 69 | 1005.5 |
| 20260505100805 | 56 | 131 | 4.0 | 7.0 | 0.00 | 0.00 | 0.00 | 68 | 1005.5 |
| 20260505100304 | 56 | 150 | 3.0 | 6.0 | 0.00 | 0.00 | 0.00 | 68 | 1005.5 |
| 20260505095804 | 57 | 151 | 3.0 | 5.0 | 0.00 | 0.00 | 0.00 | 68 | 1005.4 |
| 20260505095305 | 57 | 157 | 2.0 | 5.0 | 0.00 | 0.00 | 0.00 | 67 | 1005.3 |
| 20260505094805 | 57 | 135 | 2.0 | 3.0 | 0.00 | 0.00 | 0.00 | 67 | 1005.3 |
| 20260505094305 | 57 | 124 | 1.0 | 3.0 | 0.00 | 0.00 | 0.00 | 66 | 1005.4 |
| 20260505093305 | 57 | 158 | 3.0 | 6.0 | 0.00 | 0.00 | 0.00 | 67 | 1005.4 |
| 20260505092805 | 56 | 161 | 4.0 | 7.0 | 0.00 | 0.00 | 0.00 | 68 | 1005.4 |
| 20260505092305 | 56 | 179 | 3.0 | 6.0 | 0.00 | 0.00 | 0.00 | 69 | 1005.4 |
| 20260505091805 | 56 | 172 | 4.0 | 6.0 | 0.00 | 0.00 | 0.00 | 69 | 1005.4 |
| 20260505091305 | 56 | 179 | 5.0 | 6.0 | 0.00 | 0.00 | 0.00 | 70 | 1005.4 |
| 20260505090804 | 56 | 179 | 3.0 | 3.0 | 0.00 | 0.00 | 0.00 | 70 | 1005.4 |
| 20260505090305 | 56 | 169 | 3.0 | 5.0 | 0.00 | 0.00 | 0.00 | 70 | 1005.6 |
| 20260505085805 | 56 | 181 | 3.0 | 7.0 | 0.00 | 0.00 | 0.00 | 70 | 1005.6 |
| 20260505084805 | 56 | 168 | 3.0 | 5.0 | 0.00 | 0.00 | 0.00 | 69 | 1005.6 |
| 20260505084305 | 56 | 186 | 4.0 | 7.0 | 0.00 | 0.00 | 0.00 | 68 | 1005.6 |
| 20260505083304 | 56 | 188 | 2.0 | 3.0 | 0.00 | 0.00 | 0.00 | 67 | 1005.7 |
| 20260505082804 | 56 | 195 | 2.0 | 3.0 | 0.00 | 0.00 | 0.00 | 67 | 1005.6 |
| 20260505081805 | 56 | 180 | 1.0 | 3.0 | 0.00 | 0.00 | 0.00 | 67 | 1005.6 |
| 20260505081305 | 56 | 162 | 3.0 | 7.0 | 0.00 | 0.00 | 0.00 | 67 | 1005.6 |
| 20260505080304 | 56 | 157 | 3.0 | 6.0 | 0.00 | 0.00 | 0.00 | 68 | 1005.8 |
| 20260505075805 | 56 | 150 | 2.0 | 5.0 | 0.00 | 0.00 | 0.00 | 67 | 1005.8 |
| 20260505075305 | 56 | 161 | 2.0 | 3.0 | 0.00 | 0.00 | 0.00 | 67 | 1005.9 |
| 20260505074305 | 56 | 143 | 3.0 | 8.0 | 0.00 | 0.00 | 0.00 | 67 | 1006.1 |
| 20260505073805 | 56 | 159 | 3.0 | 7.0 | 0.00 | 0.00 | 0.00 | 67 | 1006.1 |
| 20260505073304 | 56 | 158 | 4.0 | 7.0 | 0.00 | 0.00 | 0.00 | 66 | 1006.1 |
| 20260505072805 | 56 | 163 | 3.0 | 5.0 | 0.00 | 0.00 | 0.00 | 65 | 1006.3 |
| 20260505072305 | 56 | 157 | 3.0 | 8.0 | 0.00 | 0.00 | 0.00 | 65 | 1006.3 |
| 20260505071804 | 56 | 139 | 4.0 | 8.0 | 0.00 | 0.00 | 0.00 | 64 | 1006.3 |
| 20260505071305 | 57 | 147 | 5.0 | 12.0 | 0.00 | 0.00 | 0.00 | 64 | 1006.3 |
| 20260505070805 | 57 | 136 | 6.0 | 9.0 | 0.00 | 0.00 | 0.00 | 63 | 1006.3 |
| 20260505070304 | 57 | 121 | 5.0 | 8.0 | 0.00 | 0.00 | 0.00 | 63 | 1006.3 |
| 20260505065804 | 57 | 115 | 5.0 | 7.0 | 0.00 | 0.00 | 0.00 | 62 | 1006.3 |
| 20260505065305 | 57 | 134 | 5.0 | 8.0 | 0.00 | 0.00 | 0.00 | 62 | 1006.3 |
| 20260505064305 | 57 | 119 | 5.0 | 8.0 | 0.00 | 0.00 | 0.00 | 61 | 1006.3 |
| 20260505063805 | 58 | 124 | 6.0 | 9.0 | 0.00 | 0.00 | 0.00 | 60 | 1006.3 |
| 20260505063305 | 58 | 121 | 6.0 | 9.0 | 0.00 | 0.00 | 0.00 | 58 | 1006.3 |
| 20260505062805 | 58 | 108 | 3.0 | 6.0 | 0.00 | 0.00 | 0.00 | 55 | 1006.3 |
| 20260505061804 | 58 | 179 | 2.0 | 6.0 | 0.00 | 0.00 | 0.00 | 54 | 1006.3 |
| 20260505061304 | 58 | 188 | 3.0 | 6.0 | 0.00 | 0.00 | 0.00 | 54 | 1006.5 |
| 20260505060304 | 58 | 169 | 5.0 | 8.0 | 0.00 | 0.00 | 0.00 | 55 | 1006.6 |
| 20260505055804 | 58 | 179 | 2.0 | 8.0 | 0.00 | 0.00 | 0.00 | 56 | 1006.3 |
| 20260505055305 | 58 | 186 | 2.0 | 7.0 | 0.00 | 0.00 | 0.00 | 56 | 1006.3 |
| 20260505054805 | 58 | 222 | 6.0 | 15.0 | 0.00 | 0.00 | 0.00 | 56 | 1006.3 |
| 20260505054305 | 58 | 224 | 5.0 | 10.0 | 0.00 | 0.00 | 0.00 | 57 | 1006.3 |
| 20260505053304 | 58 | 231 | 10.0 | 15.0 | 0.00 | 0.00 | 0.00 | 56 | 1006.3 |